Location: Zagreb
(45.8000°N, 16.0000°E)
Time: 10:28:30
(UTC+01:00)

Tiros 1 - All Passes

Search period start: 28 January 2022 00:00
Search period end: 07 February 2022 00:00
Orbit: 629 x 664 km, 48.4° (Epoch: 27 January)

Date Brightness Start Highest point End Pass type
(mag) Time Alt. Az. Time Alt. Az. Time Alt. Az.
28 Jan - 01:00:41 10° WNW 01:05:28 66° N 01:10:14 10° E night (unlit)
28 Jan - 02:43:00 10° WNW 02:47:46 65° SSW 02:52:27 10° SE night (unlit)
28 Jan - 04:26:08 10° W 04:29:19 18° SW 04:32:28 10° S visible
28 Jan - 20:21:17 10° S 20:24:56 22° SE 20:28:37 10° E night (unlit)
28 Jan - 22:01:49 10° WSW 22:06:38 74° SSE 22:11:26 10° ENE night (unlit)
28 Jan - 23:44:12 10° W 23:48:59 64° N 23:53:45 10° ENE night (unlit)
29 Jan - 01:26:38 10° WNW 01:31:28 82° NNE 01:36:15 10° ESE night (unlit)
29 Jan - 03:09:04 10° WNW 03:13:28 37° SW 03:17:48 10° SSE night (unlit)
29 Jan - 20:46:00 10° SW 20:50:29 41° SSE 20:55:00 10° ENE night (unlit)
29 Jan - 22:27:42 10° WSW 22:32:32 78° NNW 22:37:22 10° ENE night (unlit)
30 Jan - 00:10:14 10° WNW 00:15:02 65° N 00:19:49 10° E night (unlit)
30 Jan - 01:52:34 10° WNW 01:57:21 68° SSW 02:02:05 10° ESE night (unlit)
30 Jan - 03:35:35 10° W 03:38:58 19° SW 03:42:19 10° S night (unlit)
30 Jan - 19:31:05 10° S 19:34:34 20° SE 19:38:05 10° E visible
30 Jan - 21:11:26 10° WSW 21:16:13 70° SSE 21:21:01 10° ENE night (unlit)
30 Jan - 22:53:45 10° W 22:58:33 65° N 23:03:20 10° ENE night (unlit)
31 Jan - 00:36:12 10° WNW 00:41:03 79° NNE 00:45:50 10° ESE night (unlit)
31 Jan - 02:18:37 10° WNW 02:23:04 39° SW 02:27:29 10° SE night (unlit)
31 Jan - 19:55:40 10° SSW 20:00:06 38° SE 20:04:33 10° ENE visible
31 Jan - 21:37:17 10° WSW 21:42:07 81° NNW 21:46:57 10° ENE night (unlit)
31 Jan - 23:19:48 10° WNW 23:24:37 64° N 23:29:23 10° E night (unlit)
01 Feb - 01:02:09 10° WNW 01:06:57 72° SSW 01:11:42 10° ESE night (unlit)
01 Feb - 02:45:02 10° W 02:48:36 21° SW 02:52:09 10° S night (unlit)
01 Feb - 18:40:54 10° S 18:44:13 19° SE 18:47:32 10° E visible
01 Feb - 20:21:02 10° SW 20:25:48 66° SSE 20:30:35 10° ENE visible
01 Feb - 22:03:19 10° W 22:08:07 66° N 22:12:54 10° ENE night (unlit)
01 Feb - 23:45:47 10° WNW 23:50:37 77° NNE 23:55:25 10° E night (unlit)
02 Feb - 01:28:09 10° WNW 01:32:41 42° SSW 01:37:10 10° SE night (unlit)
02 Feb - 19:05:21 10° SSW 19:09:42 35° SE 19:14:06 10° E visible
02 Feb - 20:46:51 10° WSW 20:51:41 83° NNW 20:56:32 10° ENE visible
02 Feb - 22:29:22 10° W 22:34:10 64° N 22:38:57 10° E night (unlit)
03 Feb - 00:11:43 10° WNW 00:16:32 76° SSW 00:21:18 10° ESE night (unlit)
03 Feb - 01:54:30 10° W 01:58:14 23° SW 02:01:57 10° S night (unlit)
03 Feb - 17:50:45 10° S 17:53:51 17° SE 17:56:58 10° E visible
03 Feb - 19:30:40 10° SW 19:35:24 63° SSE 19:40:10 10° ENE visible
03 Feb - 21:12:52 10° W 21:17:41 67° N 21:22:29 10° ENE visible
03 Feb - 22:55:21 10° WNW 23:00:12 75° NNE 23:05:00 10° E night (unlit)
04 Feb - 00:37:42 10° WNW 00:42:18 45° SSW 00:46:51 10° SE night (unlit)
04 Feb - 02:22:30 10° WSW 02:23:35 11° SW 02:24:42 10° SW night (unlit)
04 Feb - 18:15:03 10° SSW 18:19:20 33° SE 18:23:38 10° E visible
04 Feb - 19:56:26 10° WSW 20:01:15 86° NNW 20:06:06 10° ENE visible
04 Feb - 21:38:56 10° W 21:43:43 63° N 21:48:31 10° E visible
04 Feb - 23:21:18 10° WNW 23:26:07 79° SSW 23:30:54 10° ESE night (unlit)
05 Feb - 01:03:59 10° W 01:07:52 24° SW 01:11:43 10° SSE night (unlit)
05 Feb - 17:00:38 10° S 17:03:29 16° SE 17:06:21 10° E daylight
05 Feb - 18:40:17 10° SW 18:44:59 59° SSE 18:49:44 10° ENE visible
05 Feb - 20:22:26 10° W 20:27:14 68° N 20:32:03 10° ENE visible
05 Feb - 22:04:56 10° WNW 22:09:45 73° NNE 22:14:34 10° E night (unlit)
05 Feb - 23:47:15 10° WNW 23:51:54 48° SSW 23:56:30 10° SE night (unlit)
06 Feb - 01:31:29 10° WSW 01:33:15 12° SW 01:35:00 10° SSW night (unlit)
06 Feb - 17:24:46 10° SSW 17:28:56 31° SE 17:33:09 10° E daylight
06 Feb - 19:06:01 10° WSW 19:10:50 89° N 19:15:40 10° ENE visible
06 Feb - 20:48:30 10° W 20:53:17 63° N 20:58:04 10° E visible
06 Feb - 22:30:51 10° WNW 22:35:42 83° SSW 22:40:30 10° ESE night (unlit)
